Location: Ash Swamp
(41.5170°N, 74.6157°W)
Time: 17:09:59
(UTC+00:00)

Cosmos 2344 - Pass Details

Date: 14 July 2020
Orbit: 1249 x 2993 km, 63.3° (Epoch: 05 August)

Event Time Altitude Azimuth Distance (km) Brightness Sun altitude
Rises 01:05:52 0° 179° (S) 4,405 6.0 -6.2°
Reaches altitude 10° 01:09:11 10° 168° (SSE) 3,317 5.3 -6.7°
Maximum altitude 01:15:34 30° 111° (ESE) 2,089 4.2 -7.6°
Drops below altitude 10° 01:21:55 10° 53° (NE) 3,303 5.6 -8.6°
Sets 01:25:11 0° 43° (NE) 4,383 6.4 -9.0°
